Date,TemperatureHighF,TemperatureAvgF,TemperatureLowF,DewpointHighF,DewpointAvgF,DewpointLowF,HumidityHigh,HumidityAvg,HumidityLow,PressureMaxIn,PressureMinIn,WindSpeedMaxMPH,WindSpeedAvgMPH,GustSpeedMaxMPH,PrecipitationSumIn
2013-1-1,77.7,60.7,46.9,61.4,54.1,45.3,98,81,53,30.14,29.96,11,0,11,0.00
2013-1-2,80.7,64.7,48.5,68.7,59.7,46.9,100,85,61,29.98,29.89,14,0,14,0.00
2013-1-3,70.4,63.4,56.7,66.0,61.0,53.9,96,92,83,30.11,29.95,17,2,17,0.00
2013-1-4,57.7,55.4,51.9,56.6,54.2,50.7,96,96,95,30.20,30.09,16,4,16,0.00
2013-1-5,72.5,60.0,47.6,61.8,54.9,45.4,95,84,67,30.23,30.11,11,1,12,0.00
2013-1-6,79.0,66.5,59.4,68.5,61.7,56.0,100,85,66,30.14,29.98,14,1,14,0.00
2013-1-7,68.4,60.5,52.4,59.3,55.8,48.8,95,85,71,30.15,30.06,13,2,13,0.01
2013-1-8,79.7,69.1,60.4,70.9,65.7,58.7,97,89,71,30.15,30.06,11,1,11,0.00
2013-1-9,80.5,71.8,66.3,73.5,68.7,65.0,100,90,73,30.24,30.13,7,0,7,0.00
2013-1-10,82.0,70.8,59.5,72.9,65.1,57.3,100,84,53,30.24,30.15,21,1,21,0.00
2013-1-11,81.7,67.2,55.6,70.7,61.5,54.4,99,84,56,30.19,30.08,16,2,16,0.00
2013-1-12,81.8,66.5,53.5,71.1,60.9,52.4,100,84,54,30.12,30.01,13,0,13,0.00
2013-1-13,80.9,66.4,53.7,70.6,60.2,52.3,100,82,54,30.09,30.00,6,0,6,0.00
2013-1-14,81.5,66.4,53.9,68.2,60.2,52.5,99,82,56,30.12,30.04,14,2,14,0.00
2013-1-15,80.5,68.7,58.6,69.4,62.7,57.2,100,83,58,30.08,29.98,10,0,10,0.00
2013-1-16,80.5,66.0,55.0,67.9,59.4,52.9,98,81,50,30.03,29.93,14,0,14,0.00
2013-1-17,77.7,59.3,48.5,69.8,54.5,40.2,99,85,70,30.04,29.89,22,5,25,0.00
2013-1-18,65.8,52.4,40.3,54.6,45.6,34.4,88,78,65,30.21,30.04,26,4,26,0.00
2013-1-19,73.2,62.1,52.6,61.6,56.2,49.5,94,82,63,30.21,30.07,16,2,16,0.00
2013-1-20,72.8,62.8,56.2,61.7,57.2,50.6,100,83,65,30.11,29.97,12,1,12,0.00
2013-1-21,73.9,63.3,56.4,60.5,56.2,51.7,90,79,61,30.02,29.92,10,1,10,0.00
2013-1-22,61.2,53.3,39.2,51.8,40.2,31.5,86,64,34,30.20,29.99,16,2,16,0.00
2013-1-23,66.4,48.0,31.7,41.7,33.6,29.4,100,64,26,30.28,30.19,4,0,4,0.00
2013-1-24,72.3,53.6,34.9,53.6,43.6,32.0,99,72,41,30.24,30.12,6,0,6,0.00
2013-1-25,74.8,59.9,46.4,60.4,50.3,42.7,100,74,43,30.22,30.09,13,0,13,0.00
2013-1-26,74.9,56.8,39.8,61.0,49.8,37.7,100,79,52,30.18,30.08,4,0,4,0.01
2013-1-27,78.1,61.4,44.9,65.5,55.2,43.6,100,82,53,30.24,30.15,10,0,10,0.00
2013-1-28,79.0,67.7,54.9,65.4,61.4,52.9,97,81,61,30.26,30.15,18,3,18,0.00
2013-1-29,83.2,69.4,57.1,72.0,62.8,55.5,100,82,50,30.18,30.02,14,1,14,0.00
2013-1-30,83.9,73.2,62.5,67.9,65.0,61.0,100,77,53,30.03,29.79,21,4,21,0.00
2013-1-31,71.2,53.8,33.3,66.3,40.6,25.4,93,65,26,30.16,29.79,20,2,20,0.00
2013-2-1,68.8,47.5,31.1,39.0,30.6,23.8,91,60,20,30.27,30.15,10,0,10,0.00
2013-2-2,70.3,49.5,31.2,48.8,36.4,28.1,98,67,28,30.23,30.06,9,0,9,0.00
2013-2-3,69.4,52.2,33.2,52.4,40.6,30.1,93,68,31,30.09,29.96,14,0,14,0.00
2013-2-4,68.7,50.8,32.9,50.3,36.5,30.3,100,64,27,30.05,29.95,9,0,9,0.00
2013-2-5,75.4,55.2,35.4,54.5,44.8,32.5,95,71,44,30.02,29.91,16,1,16,0.00
2013-2-6,75.6,64.7,54.2,64.6,58.1,50.8,91,80,58,30.04,29.94,8,0,8,0.00
2013-2-7,79.6,68.8,55.0,66.7,61.2,53.3,100,78,56,30.00,29.78,17,1,17,0.00
2013-2-8,77.2,67.7,54.8,65.2,60.1,52.1,97,78,51,30.00,29.79,15,1,15,0.00
2013-2-9,73.5,58.9,45.4,57.8,52.0,43.5,100,80,54,30.14,30.00,9,0,9,0.00
2013-2-10,77.0,63.1,47.0,60.6,54.7,45.1,100,76,51,30.19,30.08,13,1,13,0.00
2013-2-11,82.4,68.3,53.8,64.2,59.5,51.7,100,75,50,30.13,29.99,18,1,18,0.00
2013-2-12,84.7,70.1,54.7,69.3,62.3,53.0,100,78,48,30.01,29.84,13,1,13,0.00
2013-2-13,83.6,70.8,62.0,71.1,66.8,59.8,95,88,63,29.89,29.75,27,6,27,0.00
2013-2-14,64.5,60.2,54.9,62.8,58.0,53.3,100,92,78,29.99,29.85,12,0,12,0.00
2013-2-15,68.4,56.5,47.8,58.0,51.6,45.6,96,85,54,30.00,29.88,10,1,10,0.00
2013-2-16,66.1,53.7,45.2,54.7,42.3,27.7,100,69,40,30.06,29.82,20,1,20,0.00
2013-2-17,53.8,40.9,26.4,28.6,20.4,9.1,83,48,18,30.27,30.06,16,2,16,0.00
2013-2-18,66.8,45.7,21.8,46.0,33.5,18.8,99,67,34,30.29,30.14,16,1,16,0.00
2013-2-19,78.8,59.4,38.4,57.4,49.4,36.3,100,73,43,30.14,29.97,14,0,14,0.00
2013-2-20,74.3,61.4,48.4,58.6,53.4,45.4,95,76,57,30.07,29.94,14,1,14,0.00
2013-2-21,83.4,64.3,46.2,65.7,56.3,43.9,95,78,44,30.04,29.91,11,0,11,0.00
2013-2-22,85.9,71.1,55.9,71.3,63.1,54.5,100,79,42,30.00,29.90,14,1,15,0.00
2013-2-23,87.2,75.2,66.0,70.5,67.2,64.0,96,78,47,29.92,29.79,21,6,21,0.00
2013-2-24,76.8,69.9,63.5,70.4,66.7,61.0,96,90,78,29.89,29.79,12,1,12,0.00
2013-2-25,84.1,71.8,61.7,72.0,65.3,60.3,97,82,53,29.84,29.69,9,0,9,0.00
2013-2-26,78.3,70.1,64.5,73.1,66.1,60.9,96,88,61,29.78,29.65,22,6,22,0.00
2013-2-27,73.2,64.0,55.0,61.6,53.6,48.2,90,71,43,29.90,29.78,16,2,16,0.00
2013-2-28,72.3,59.3,44.1,55.9,48.3,39.4,100,70,31,29.92,29.80,14,1,14,0.00
2013-3-1,66.3,54.8,46.3,49.0,40.7,33.5,86,61,32,29.92,29.81,17,2,17,0.00
2013-3-2,58.7,48.9,38.3,39.1,33.8,23.3,83,58,26,29.95,29.85,26,4,26,0.00
2013-3-3,51.9,43.5,34.1,34.7,30.9,27.3,78,62,42,30.07,29.91,19,2,19,0.00
2013-3-4,67.1,45.6,25.7,36.2,28.4,19.4,92,58,23,30.14,30.02,15,1,15,0.00
2013-3-5,77.0,56.9,32.3,57.7,42.8,29.7,100,64,35,30.09,29.90,21,2,21,0.00
2013-3-6,66.4,57.7,44.6,61.2,40.3,28.4,92,56,26,30.06,29.82,22,6,22,0.00
2013-3-7,68.3,50.5,36.8,44.9,37.1,30.6,89,62,33,30.14,30.03,13,1,13,0.00
2013-3-8,74.2,52.5,32.6,47.0,38.9,30.5,96,67,26,30.14,30.03,11,0,11,0.00
2013-3-9,74.5,57.3,37.7,53.9,46.8,35.7,100,72,36,30.15,30.06,13,1,13,0.00
2013-3-10,78.3,63.2,46.7,59.1,53.2,44.8,96,73,40,30.10,30.00,19,2,22,0.00
2013-3-11,79.1,64.7,45.1,61.7,55.2,43.4,97,74,50,30.03,29.82,20,2,20,0.00
2013-3-12,72.9,65.4,52.8,66.9,61.4,50.2,94,87,78,29.95,29.77,17,5,20,0.00
2013-3-13,74.7,59.3,45.5,53.9,40.4,26.2,93,56,17,30.09,29.94,18,2,19,0.00
2013-3-14,65.6,51.9,35.6,41.1,33.1,23.7,89,53,22,30.18,30.08,13,1,16,0.00
2013-3-15,73.0,51.7,30.9,48.6,36.1,28.7,95,62,25,30.20,30.05,14,1,14,0.00
2013-3-16,78.8,58.9,34.5,53.3,41.2,32.2,96,59,25,30.09,29.95,11,0,12,0.00
2013-3-17,76.9,62.7,43.1,60.9,52.1,40.4,100,72,39,30.05,29.92,19,2,20,0.00
2013-3-18,78.6,70.0,60.7,66.0,63.0,59.0,94,80,59,29.96,29.82,18,2,18,0.01
2013-3-19,84.9,71.8,60.8,65.0,61.6,57.9,100,73,42,29.95,29.81,10,1,12,0.00
2013-3-20,73.9,64.0,56.1,67.9,60.7,54.6,95,89,73,29.92,29.72,18,1,18,0.00
2013-3-21,69.8,56.1,42.3,55.1,40.3,24.0,96,63,18,29.89,29.78,13,0,15,0.00
2013-3-22,77.7,58.7,37.4,57.2,47.3,35.6,100,70,38,29.94,29.81,13,1,14,0.00
2013-3-23,86.3,71.2,56.4,73.8,64.7,54.0,96,81,59,29.90,29.68,18,3,23,0.00
2013-3-24,81.6,72.2,66.3,73.4,68.2,63.9,95,88,70,29.73,29.51,27,6,38,0.00
2013-3-25,70.6,62.5,53.8,64.0,43.4,26.2,92,55,19,29.96,29.62,14,2,15,0.00
2013-3-26,61.2,50.6,37.1,37.1,30.2,17.7,82,48,21,30.16,29.95,18,3,20,0.00
2013-3-27,63.1,47.4,30.1,38.2,31.8,25.1,90,59,24,30.22,30.11,13,1,19,0.00
2013-3-28,72.2,51.9,29.9,43.1,34.8,27.2,96,60,22,30.21,30.09,12,1,12,0.00
2013-3-29,74.7,55.5,34.8,51.3,36.2,29.0,100,57,20,30.25,30.10,13,0,13,0.00
2013-3-30,77.7,60.1,37.9,55.2,45.3,35.2,100,63,33,30.18,30.03,10,0,12,0.00
2013-3-31,81.8,66.6,52.2,57.6,52.4,44.8,90,64,29,30.07,29.91,14,1,15,0.00
2013-4-1,83.4,69.7,55.1,66.2,60.3,51.7,95,75,46,29.94,29.85,18,1,22,0.00
2013-4-2,84.0,69.0,54.3,65.8,54.2,45.0,100,65,29,30.01,29.92,10,0,13,0.00
2013-4-3,82.4,68.7,53.3,66.8,61.3,51.3,100,79,55,30.00,29.88,13,2,13,0.00
2013-4-4,73.5,69.7,64.9,69.8,66.2,62.5,96,89,80,29.93,29.79,20,4,25,0.00
2013-4-5,77.7,66.2,56.6,68.8,62.0,54.4,100,87,66,29.93,29.72,16,4,17,0.00
2013-4-6,75.6,63.5,51.3,60.3,55.6,49.3,94,77,54,30.07,29.92,16,1,17,0.00
2013-4-7,79.9,66.4,51.5,63.5,56.3,49.8,97,73,40,30.09,29.98,13,0,13,0.00
2013-4-8,84.7,69.0,52.5,65.9,58.4,50.8,97,73,38,30.07,29.98,14,1,14,0.00
2013-4-9,84.7,70.1,55.5,69.3,59.8,53.8,98,73,41,30.10,30.00,16,1,16,0.00
2013-4-10,84.5,73.6,56.6,69.9,63.3,56.6,100,72,46,30.05,29.91,16,2,17,0.00
2013-4-11,89.8,79.8,72.7,73.4,70.9,67.5,91,76,49,29.92,29.73,21,6,21,0.00
2013-4-12,83.2,76.7,71.8,75.5,72.2,68.3,93,86,68,29.82,29.73,23,3,23,0.00
2013-4-13,87.3,74.0,59.9,71.6,64.8,52.3,100,76,41,29.92,29.80,11,0,11,0.00
2013-4-14,89.5,72.4,57.3,73.9,66.7,54.2,95,83,57,29.92,29.75,16,2,16,0.00
2013-4-15,88.6,75.1,64.7,70.2,65.2,62.3,100,74,46,30.01,29.81,11,0,11,0.00
2013-4-16,85.9,74.4,65.2,72.8,67.1,62.4,100,80,58,30.08,29.98,13,0,13,0.00
2013-4-17,83.8,73.3,63.4,73.0,65.7,60.7,100,79,49,30.08,29.97,10,0,10,0.01
2013-4-18,88.4,77.3,60.9,72.7,66.3,56.0,100,72,40,29.99,29.87,14,1,14,0.00
2013-4-19,91.8,80.9,74.9,74.1,70.7,65.5,91,72,50,29.93,29.81,24,7,24,0.00
2013-4-20,76.4,63.3,56.6,70.1,60.2,54.1,100,90,77,30.09,29.87,13,4,13,0.00
2013-4-21,77.4,68.4,58.4,71.3,65.1,55.8,96,89,78,30.07,29.97,12,2,12,0.01
2013-4-22,69.1,67.1,63.6,68.9,65.4,60.9,100,95,86,30.02,29.93,19,4,19,0.00
2013-4-23,79.9,69.5,59.7,66.0,60.4,56.6,100,75,45,30.06,29.95,10,3,10,0.00
2013-4-24,85.3,70.7,50.9,66.1,58.8,49.2,100,70,37,30.07,29.98,13,0,13,0.00
2013-4-25,87.6,77.5,57.8,70.6,62.8,48.3,100,63,29,30.12,30.02,13,0,13,0.00
2013-4-26,87.2,76.8,61.8,69.1,64.7,51.1,100,68,45,30.17,30.07,12,0,12,0.00
2013-4-27,84.8,74.6,62.1,71.4,64.5,56.9,100,73,46,30.16,30.02,14,0,14,0.00
2013-4-28,82.6,73.7,62.3,71.5,65.2,57.1,100,76,55,30.07,29.91,20,2,20,0.00
2013-4-29,84.9,70.8,0.0,68.8,61.3,0.0,100,70,43,29.96,29.82,0,0,0,0.00
2013-4-30,86.7,78.9,67.1,72.7,66.4,50.9,100,67,45,29.94,29.82,16,0,16,0.00
2013-5-1,79.0,74.2,68.3,73.5,69.0,62.2,100,84,73,29.95,29.87,9,0,9,0.00
2013-5-2,70.3,68.8,65.5,70.3,67.9,64.0,100,97,94,29.89,29.74,10,0,10,0.46
2013-5-3,77.4,70.9,67.7,72.3,68.7,65.6,100,93,78,29.76,29.65,18,2,18,0.12
2013-5-4,82.8,72.8,67.9,73.4,68.9,65.8,100,88,69,29.70,29.59,13,2,13,0.00
2013-5-5,78.2,69.0,59.4,68.4,56.2,49.1,92,67,38,29.84,29.67,18,4,18,0.00
2013-5-6,75.1,66.4,59.2,60.8,55.0,49.4,96,68,42,29.92,29.80,11,1,11,0.00
2013-5-7,79.2,65.0,47.7,62.0,55.8,45.8,100,75,46,29.97,29.87,0,0,0,0.00
2013-5-8,82.4,68.8,54.5,66.1,59.5,52.6,100,76,42,30.05,29.93,13,0,13,0.00
2013-5-9,86.6,70.6,53.5,68.4,60.9,53.3,100,75,40,30.07,29.99,13,0,13,0.00
2013-5-10,89.5,74.6,57.2,71.6,65.0,57.2,100,76,42,30.04,29.92,17,0,17,0.00
2013-5-11,90.0,75.0,64.0,75.9,69.5,64.0,100,85,53,29.97,29.88,22,1,22,0.01
2013-5-12,88.8,76.2,64.7,72.1,67.6,64.7,100,77,48,29.95,29.86,16,0,16,0.00
2013-5-13,82.6,71.4,54.5,68.5,58.0,46.2,100,67,30,30.06,29.92,13,0,13,0.00
2013-5-14,82.8,66.0,45.8,56.6,50.4,43.2,100,64,27,30.14,30.04,11,0,11,0.00
2013-5-15,85.7,69.4,50.1,65.4,56.3,50.1,100,68,34,30.14,30.01,15,1,15,0.00
2013-5-16,85.9,70.9,53.9,67.8,60.5,52.5,100,73,36,30.06,29.94,15,0,15,0.00
2013-5-17,88.4,74.0,56.7,69.1,64.0,55.6,100,74,40,30.03,29.96,14,1,14,0.00
2013-5-18,91.4,76.5,60.9,73.1,67.3,59.2,100,77,39,30.05,29.93,16,0,16,0.00
2013-5-19,87.2,75.9,65.6,75.9,71.2,64.7,100,86,63,30.01,29.91,17,1,17,0.87
2013-5-20,88.6,76.2,68.6,73.7,69.9,65.9,100,84,50,30.01,29.90,9,0,9,0.09
2013-5-21,80.3,73.6,67.4,74.9,70.9,67.0,100,92,75,29.96,29.86,14,1,14,0.05
2013-5-22,85.3,74.1,64.7,75.3,69.9,64.7,100,88,61,29.89,29.83,12,0,12,0.01
2013-5-23,91.4,76.6,65.5,76.0,70.0,65.3,100,83,48,29.92,29.82,9,0,9,0.00
2013-5-24,93.2,80.1,65.5,75.8,67.4,59.7,100,70,35,30.02,29.88,14,0,14,0.00
2013-5-25,85.8,73.9,61.2,72.1,63.2,57.8,100,72,43,30.12,30.00,15,1,15,0.00
2013-5-26,86.1,69.6,51.4,66.2,58.0,51.0,100,71,35,30.14,30.06,13,0,13,0.00
2013-5-27,86.6,71.7,56.7,67.3,61.6,54.7,100,74,43,30.11,30.03,18,1,18,0.00
2013-5-28,87.7,74.8,59.9,72.1,67.1,57.7,100,79,56,30.08,29.99,20,1,20,0.00
2013-5-29,88.0,76.9,67.1,75.8,71.8,67.0,100,85,60,30.05,29.98,21,1,21,0.23
2013-5-30,85.3,76.6,69.8,76.2,72.7,69.7,100,88,69,30.05,29.97,21,2,21,0.08
2013-5-31,84.5,76.4,68.8,76.8,71.8,67.1,100,86,68,30.04,29.96,17,1,17,0.47
2013-6-1,86.9,77.4,69.7,76.7,73.1,67.6,100,87,68,30.00,29.90,22,2,22,0.01
2013-6-2,93.6,78.7,71.5,78.8,74.6,71.0,100,89,54,29.94,29.78,10,0,10,0.03
2013-6-3,91.9,79.4,70.6,77.7,73.8,69.7,100,85,54,29.92,29.79,14,1,14,0.10
2013-6-4,88.2,77.0,71.8,76.5,74.1,70.3,100,92,60,29.96,29.85,12,0,12,0.07
2013-6-5,85.7,74.6,70.1,77.8,72.8,69.6,100,95,62,29.95,29.83,14,0,14,0.85
2013-6-6,80.5,74.9,72.1,78.2,73.6,71.4,100,96,79,29.84,29.55,23,2,23,2.17
2013-6-7,91.1,80.3,72.0,75.5,73.2,70.2,99,80,58,29.87,29.65,16,1,16,0.00
2013-6-8,90.6,76.8,71.1,77.3,73.5,69.7,100,91,62,30.01,29.87,14,0,14,0.60
2013-6-9,90.5,79.1,69.8,78.8,76.1,69.3,100,92,61,30.03,29.95,14,0,14,1.18
2013-6-10,92.8,79.3,70.4,79.2,73.6,68.5,100,85,47,30.02,29.92,12,0,12,0.02
2013-6-11,91.4,78.2,71.6,79.1,74.3,70.7,100,89,57,30.00,29.95,8,0,8,0.00
2013-6-12,95.2,81.8,69.5,78.8,73.3,68.6,99,78,44,29.99,29.89,5,1,13,0.00
2013-6-13,94.4,83.0,71.9,77.9,74.2,70.1,97,77,55,29.94,29.79,8,2,15,0.00
2013-6-14,91.5,82.7,74.9,76.6,74.7,73.1,94,78,57,29.84,29.75,7,3,19,0.00
2013-6-15,87.0,80.0,75.1,77.4,74.7,71.6,100,85,68,29.99,29.82,1,0,7,0.14
2013-6-16,88.4,82.0,75.6,80.0,77.1,72.7,100,86,69,30.01,29.94,14,1,15,0.48
2013-6-17,93.0,81.7,74.2,80.4,76.5,73.2,100,86,55,30.00,29.88,17,1,17,0.55
2013-6-18,91.7,82.0,73.1,80.4,75.3,71.6,100,82,58,29.97,29.86,11,0,11,0.07
2013-6-19,91.0,81.3,72.3,79.5,75.1,71.0,100,83,60,29.95,29.86,16,1,16,0.00
2013-6-20,93.6,81.0,69.9,78.3,73.4,69.2,100,81,46,29.99,29.92,17,1,17,0.00
2013-6-21,90.5,77.1,69.0,76.7,72.2,68.1,100,87,56,30.04,29.96,4,0,4,1.68
2013-6-22,87.3,76.2,68.3,78.5,73.1,67.5,100,91,66,30.04,29.98,15,0,15,0.32
2013-6-23,90.4,79.1,69.0,77.8,74.2,67.8,100,86,62,30.07,30.00,15,1,15,0.00
2013-6-24,92.4,80.1,70.1,79.5,74.4,69.1,100,84,52,30.11,30.00,13,1,14,0.01
2013-6-25,92.1,80.5,69.9,78.8,73.3,68.6,100,80,52,30.08,29.95,13,1,14,0.01
2013-6-26,92.5,79.1,70.7,78.1,73.9,69.2,100,86,50,30.00,29.92,12,1,12,0.44
2013-6-27,76.0,70.8,68.8,75.8,70.6,67.6,100,99,96,29.96,29.92,0,0,0,0.01
2013-6-28,91.4,80.9,74.0,78.5,75.2,72.2,99,84,61,29.88,29.75,8,3,19,0.00
2013-6-29,89.3,80.3,75.4,79.0,75.5,72.7,95,86,64,29.78,29.70,9,4,22,0.00
2013-6-30,85.8,78.2,74.6,79.7,74.8,72.7,95,89,80,29.79,29.72,7,4,19,0.00
2013-7-1,83.6,75.2,72.3,77.1,73.5,70.9,100,94,78,29.95,29.77,14,2,21,0.12
2013-7-2,84.7,76.6,72.5,80.8,75.0,72.5,100,95,77,30.01,29.90,10,0,10,0.05
2013-7-3,88.2,77.1,72.0,80.7,74.6,70.8,100,93,67,30.04,29.98,0,0,0,0.22
2013-7-4,90.5,77.2,71.6,78.8,73.8,70.9,100,91,59,30.08,29.99,0,0,0,0.15
2013-7-5,87.4,79.8,70.3,79.2,74.0,70.3,100,83,60,30.08,29.98,9,0,9,0.03
2013-7-6,91.2,80.6,70.6,78.5,74.4,70.6,100,83,52,30.05,29.96,16,1,16,0.00
2013-7-7,89.9,80.8,72.0,78.9,74.7,71.9,100,83,58,30.06,29.97,4,0,4,0.04
2013-7-8,91.4,81.0,70.9,79.2,74.2,70.9,100,82,54,30.09,30.00,3,0,3,0.02
2013-7-9,91.7,80.0,68.6,79.0,72.3,67.2,100,80,48,30.09,29.98,13,0,13,0.01
2013-7-10,91.3,78.8,68.9,77.7,72.9,67.5,100,84,56,30.02,29.89,15,0,15,0.01
2013-7-11,94.0,79.7,69.8,77.0,73.6,69.8,100,84,50,29.95,29.82,18,1,18,0.01
2013-7-12,86.7,78.5,70.9,78.7,74.2,69.6,100,87,69,29.87,29.81,7,0,7,0.00
2013-7-13,92.2,77.0,69.9,77.6,73.1,67.4,100,89,56,29.92,29.82,15,1,15,2.31
2013-7-14,88.0,76.4,70.3,77.9,73.4,69.1,100,91,63,29.98,29.90,12,0,12,0.09
2013-7-15,84.3,76.7,68.3,78.1,74.0,68.3,100,92,77,30.06,29.95,0,0,0,0.08
2013-7-16,88.8,78.8,72.8,77.0,74.1,72.2,100,87,60,30.09,30.03,0,0,0,0.00
2013-7-17,90.0,75.9,73.2,78.1,73.6,72.1,100,93,62,30.09,30.01,7,0,22,0.00
2013-7-18,87.9,78.0,71.5,78.1,73.7,70.3,100,88,59,30.05,29.96,19,0,19,0.00
2013-7-19,89.5,76.6,70.6,77.7,73.3,69.5,100,91,61,30.06,29.96,12,0,12,0.00
2013-7-20,90.1,77.3,72.8,80.5,74.7,71.8,100,93,62,30.02,29.93,8,0,8,0.00
2013-7-21,92.2,78.4,71.8,80.6,75.0,71.3,100,90,65,30.04,29.94,14,0,14,0.00
2013-7-22,89.0,77.8,73.5,80.9,75.8,72.4,100,94,68,30.04,29.97,14,0,14,0.00
2013-7-23,83.6,76.3,72.8,79.5,74.7,71.7,100,95,82,30.00,29.87,15,1,15,0.51
2013-7-24,85.9,78.6,72.7,79.9,76.5,72.7,100,94,77,29.90,29.78,16,1,16,1.79
2013-7-25,84.5,78.7,73.9,79.0,76.3,72.3,100,93,76,29.90,29.77,20,0,20,0.40
2013-7-26,93.2,80.7,71.6,80.8,75.4,71.4,100,86,57,29.93,29.85,8,0,8,0.01
2013-7-27,93.9,80.4,72.0,80.3,75.5,71.9,100,87,55,29.92,29.81,13,0,13,0.00
2013-7-28,90.1,77.4,69.4,79.4,74.3,69.4,100,91,62,29.99,29.85,11,0,11,0.00
2013-7-29,92.8,79.3,69.6,79.7,75.1,68.7,100,88,60,30.08,29.95,21,1,21,0.00
2013-7-30,94.0,81.8,72.3,80.2,75.6,70.0,100,83,48,30.10,29.99,4,0,5,0.00
2013-7-31,92.7,79.9,70.4,81.4,75.3,68.5,100,88,54,30.05,29.92,22,0,25,0.00
2013-8-1,90.3,77.9,70.8,80.1,74.2,70.8,100,90,54,29.97,29.88,15,0,15,1.67
2013-8-2,91.8,80.3,70.4,79.9,74.1,70.1,100,84,52,29.95,29.86,6,0,6,0.01
2013-8-3,91.8,80.2,73.7,80.3,76.2,70.8,100,89,56,30.00,29.91,17,1,17,0.25
2013-8-4,88.2,79.5,74.6,81.0,77.5,73.9,100,94,74,29.99,29.89,13,1,13,0.51
2013-8-5,92.6,81.3,75.2,82.6,77.4,74.0,100,89,60,29.93,29.82,14,0,14,0.40
2013-8-6,92.8,79.8,72.8,80.5,76.6,72.1,100,91,64,29.90,29.81,19,0,19,1.54
2013-8-7,91.8,80.8,73.5,81.2,77.2,73.3,100,90,59,29.90,29.83,11,0,11,1.04
2013-8-8,92.7,81.6,73.3,80.2,76.2,73.0,100,85,58,29.96,29.87,19,1,19,0.00
2013-8-9,90.9,80.1,72.1,80.6,75.7,71.3,100,88,60,29.99,29.90,17,1,17,0.00
2013-8-10,93.1,81.2,69.6,81.6,75.5,68.7,100,84,56,30.05,29.96,11,0,11,0.00
2013-8-11,93.6,82.3,71.8,80.9,75.0,70.6,100,81,51,30.07,29.98,13,0,13,0.00
2013-8-12,94.3,81.9,71.1,80.4,75.4,71.0,100,82,55,30.04,29.91,10,0,10,0.00
2013-8-13,95.1,82.6,72.8,79.0,75.1,69.2,100,80,44,29.96,29.84,10,0,11,0.00
2013-8-14,95.1,80.8,72.7,80.6,76.1,72.7,100,87,52,29.93,29.81,12,0,12,0.04
2013-8-15,94.3,81.9,71.8,80.0,75.0,70.8,100,82,51,29.95,29.83,15,1,15,0.00
2013-8-16,91.6,81.5,74.4,80.0,75.9,72.3,100,84,57,29.98,29.87,22,1,22,0.01
2013-8-17,92.5,79.5,74.3,81.1,75.6,72.7,100,89,59,30.02,29.89,23,1,23,0.00
2013-8-18,90.8,80.2,72.3,81.8,76.0,71.4,100,88,61,30.02,29.93,15,1,15,0.00
2013-8-24,76.0,74.9,74.1,75.8,74.1,72.8,100,97,96,30.05,30.01,0,0,0,1.35
2013-8-25,85.7,78.0,71.8,78.9,75.4,71.0,100,92,74,30.09,30.01,15,0,15,0.66
2013-8-26,87.4,78.3,73.3,79.1,75.2,72.9,100,91,68,30.07,29.95,3,0,3,1.40
2013-8-27,88.2,78.4,70.4,78.3,72.9,70.0,100,85,58,30.00,29.92,6,0,6,0.40
2013-8-28,90.1,77.9,66.4,77.4,70.5,65.6,100,80,51,29.99,29.89,10,0,10,0.00
2013-8-29,93.6,80.1,68.3,77.9,72.2,67.4,100,80,45,29.96,29.83,9,0,9,0.01
2013-8-30,94.2,82.0,72.5,79.8,74.8,68.5,100,82,46,29.91,29.79,10,0,14,0.01
2013-8-31,90.0,79.9,72.8,79.8,75.0,69.4,100,86,60,29.89,29.79,18,0,18,0.00
2013-9-1,93.3,79.6,69.8,77.6,73.8,69.8,100,85,55,29.92,29.80,10,0,10,0.02
2013-9-2,92.3,80.4,71.3,79.0,74.5,71.3,100,84,52,29.93,29.83,14,1,14,0.00
2013-9-3,90.5,82.5,72.3,79.0,76.1,72.3,100,82,59,29.94,29.83,9,0,9,0.00
2013-9-4,91.4,79.5,72.0,80.4,75.6,69.9,100,89,62,30.01,29.90,0,0,0,0.00
2013-9-5,94.0,80.1,69.1,78.2,73.5,67.9,100,83,51,30.03,29.92,9,0,9,0.00
2013-9-6,92.5,77.1,71.8,80.9,74.5,70.1,100,93,56,29.98,29.89,7,0,7,0.04
2013-9-7,88.4,77.1,71.1,78.8,73.5,69.7,100,90,59,29.94,29.85,13,0,13,0.00
2013-9-8,88.4,77.9,69.4,78.5,72.6,68.6,100,85,58,29.90,29.81,7,0,10,0.01
2013-9-9,89.3,77.1,65.0,76.8,70.1,63.8,100,81,49,29.97,29.87,10,0,10,0.00
2013-9-10,89.0,78.0,69.4,75.4,71.7,67.8,100,83,52,30.03,29.93,15,0,15,0.00
2013-9-11,90.8,79.4,70.6,77.7,73.1,69.1,100,83,57,30.01,29.92,15,0,15,0.00
2013-9-12,89.3,77.8,69.8,78.6,73.1,68.6,100,87,60,29.95,29.81,8,0,8,0.32
2013-9-13,92.7,78.7,68.8,78.9,72.8,67.6,100,84,50,29.84,29.70,6,0,9,0.00
2013-9-14,93.4,81.0,70.5,78.5,74.0,69.3,100,81,49,29.90,29.75,11,0,11,0.00
2013-9-15,93.5,80.2,72.1,80.9,75.1,72.1,100,86,56,30.00,29.89,19,1,19,0.00
2013-9-16,91.4,79.7,69.9,77.2,73.3,69.1,100,83,53,30.01,29.90,15,0,15,0.00
2013-9-17,89.7,78.8,69.3,78.7,73.1,68.1,100,84,57,29.99,29.88,14,1,15,0.00
2013-9-18,88.7,78.8,73.3,78.2,73.4,70.8,94,84,62,29.97,29.90,16,1,16,0.00
2013-9-19,88.8,78.0,69.5,76.7,72.8,67.3,96,85,60,29.98,29.91,16,1,16,0.00
2013-9-20,87.1,75.5,64.5,75.7,69.3,63.3,98,82,61,29.96,29.83,12,1,12,0.00
2013-9-21,91.0,77.2,63.5,74.8,69.0,62.3,98,78,44,29.87,29.67,10,0,10,0.00
2013-9-22,90.6,78.0,71.8,78.2,73.7,68.9,96,87,64,29.77,29.67,18,2,18,0.00
2013-9-23,82.6,75.9,73.4,79.3,74.7,72.2,98,96,86,29.88,29.76,13,1,13,0.00
2013-9-24,83.2,76.2,71.8,78.2,74.2,69.9,100,94,78,29.87,29.75,16,1,16,0.00
2013-9-25,83.0,76.9,72.8,75.7,73.5,71.0,97,90,77,29.76,29.68,16,3,16,0.00
2013-9-26,89.0,80.1,70.7,79.9,74.1,68.5,97,84,52,29.80,29.68,16,3,16,0.00
2013-9-27,79.2,73.4,68.9,75.6,71.2,67.5,100,93,86,29.89,29.77,18,1,18,0.00
2013-9-28,81.1,74.3,69.9,75.9,71.3,67.8,97,90,78,29.95,29.84,13,1,13,0.00
2013-9-29,85.9,74.8,66.8,74.6,69.7,65.3,100,85,59,29.92,29.84,13,1,13,0.00
2013-9-30,87.7,75.3,65.9,74.4,69.8,64.6,98,84,58,29.93,29.84,14,0,14,0.00
2013-10-1,87.5,76.4,69.7,75.8,71.1,67.6,96,84,65,30.00,29.91,11,1,12,0.00
2013-10-2,86.3,74.7,65.2,72.8,68.0,63.6,100,81,59,29.99,29.92,12,0,12,0.00
2013-10-3,89.3,76.0,64.0,76.2,69.5,62.5,98,82,55,30.00,29.91,16,1,16,0.00
2013-10-4,89.5,77.2,66.9,77.6,70.5,65.8,100,82,52,30.01,29.92,12,0,12,0.00
2013-10-5,89.0,76.2,64.8,76.7,70.4,63.6,98,84,61,29.98,29.89,13,1,13,0.00
2013-10-6,91.2,76.6,66.7,77.0,71.0,65.5,98,85,53,29.91,29.77,17,1,17,0.00
2013-10-7,82.8,74.4,67.4,77.7,72.3,66.2,99,93,80,29.79,29.65,17,2,17,0.00
2013-10-8,84.9,76.5,72.3,77.3,73.6,70.2,98,91,72,29.88,29.68,24,2,24,0.00
2013-10-9,76.8,70.4,65.3,70.7,67.4,63.3,95,90,79,29.97,29.86,15,4,17,0.00
2013-10-10,84.1,71.0,59.3,70.5,64.6,58.2,98,82,51,29.99,29.89,13,1,13,0.00
2013-10-11,86.2,70.5,57.6,72.6,63.9,56.2,98,82,52,29.98,29.86,11,1,13,0.00
2013-10-12,85.9,70.7,57.9,72.5,62.0,56.7,100,77,43,29.97,29.89,10,0,10,0.00
2013-10-13,85.3,71.8,58.1,70.1,62.9,56.7,98,76,48,30.01,29.91,13,1,13,0.00
2013-10-14,84.5,72.7,62.9,71.3,67.0,60.4,100,84,56,29.97,29.86,9,0,11,0.00
2013-10-15,78.0,72.5,66.9,72.4,69.5,64.8,96,90,81,29.92,29.82,11,1,11,0.00
2013-10-16,87.3,76.0,70.3,74.3,70.3,67.5,99,84,54,29.90,29.81,11,0,11,0.00
2013-10-17,88.6,76.2,65.6,75.3,69.3,64.4,98,82,49,29.91,29.81,12,0,12,0.00
2013-10-18,89.2,76.8,64.5,75.8,69.8,63.2,98,81,56,29.92,29.81,14,1,14,0.00
2013-10-19,89.5,77.6,65.4,76.2,70.8,63.9,98,81,50,29.88,29.78,14,1,14,0.00
2013-10-20,85.0,76.4,70.8,75.7,72.0,68.1,97,87,69,29.90,29.78,12,1,12,0.00
2013-10-21,90.5,77.8,69.0,78.6,73.0,67.5,100,86,57,29.92,29.82,17,0,17,0.00
2013-10-22,90.3,78.2,70.7,77.9,72.5,69.3,98,84,56,29.87,29.72,19,2,19,0.01
2013-10-23,80.2,71.1,56.8,71.1,63.0,52.9,95,77,43,29.95,29.72,15,2,15,0.00
2013-10-24,72.1,60.9,51.6,57.8,52.6,48.7,91,75,51,30.09,29.94,11,0,11,0.00
2013-10-25,78.8,62.6,47.4,59.2,53.4,45.8,97,75,46,30.17,30.07,11,1,13,0.00
2013-10-26,77.7,62.0,47.5,59.3,52.0,45.7,100,73,36,30.14,30.02,12,0,12,0.00
2013-10-27,77.7,61.3,46.7,60.6,52.4,45.1,97,76,42,30.07,29.98,10,1,12,0.00
2013-10-28,83.0,64.6,45.3,65.5,56.9,43.7,100,79,47,30.12,30.02,4,0,6,0.00
2013-10-29,82.3,70.0,59.1,68.5,63.8,57.1,97,82,59,30.16,30.08,14,2,18,0.00
2013-10-30,83.6,71.2,60.9,71.8,65.1,59.2,100,83,55,30.16,30.03,9,0,10,0.00
2013-10-31,86.5,72.5,58.7,71.5,65.2,57.4,98,80,49,30.06,29.90,15,2,16,0.00
2013-11-1,89.7,77.0,67.8,73.2,69.1,65.1,97,79,49,29.93,29.78,21,3,22,0.00
2013-11-2,74.0,70.5,57.2,72.7,68.4,55.8,96,93,89,29.90,29.71,19,2,19,0.00
2013-11-3,74.0,61.6,51.6,60.6,53.3,47.0,100,77,41,30.05,29.89,10,0,10,0.00
2013-11-4,79.0,67.6,58.2,66.3,60.1,54.6,93,78,48,30.12,30.03,20,2,20,0.00
2013-11-5,82.4,71.9,64.1,69.5,66.3,62.3,96,84,57,30.09,30.03,17,1,17,0.00
2013-11-6,81.7,70.8,62.7,71.3,66.7,61.0,97,88,64,30.07,29.97,16,1,16,0.00
2013-11-7,77.9,70.0,62.2,71.2,67.6,60.8,100,92,77,29.99,29.89,6,0,6,0.00
2013-11-8,73.3,65.4,59.6,65.2,60.7,52.7,97,85,74,30.06,29.92,19,4,19,0.00
2013-11-9,79.5,66.9,57.0,66.1,60.8,55.0,99,82,60,30.11,30.03,18,0,18,0.00
2013-11-10,79.8,68.7,57.7,68.8,63.8,55.8,97,86,62,30.09,30.01,12,1,12,0.00
2013-11-11,81.3,69.0,60.4,68.9,63.7,58.2,100,84,62,30.09,30.00,13,1,13,0.00
2013-11-12,77.3,67.1,58.4,70.2,63.4,56.8,98,88,68,30.04,29.92,10,0,10,0.00
2013-11-13,63.8,58.1,52.6,59.2,50.2,46.7,89,75,61,30.26,30.01,28,8,28,0.00
2013-11-14,73.8,58.9,46.5,59.9,52.1,44.2,96,80,56,30.23,30.11,16,2,20,0.00
2013-11-15,70.6,63.0,51.5,65.6,60.4,49.0,100,92,81,30.12,30.00,11,0,11,0.00
2013-11-16,76.4,68.9,64.3,72.2,67.0,63.1,97,94,83,30.07,29.96,6,0,11,0.00
2013-11-17,85.3,74.6,66.6,75.1,70.1,65.5,98,87,63,30.02,29.92,14,1,14,0.00
2013-11-18,81.3,73.3,65.3,73.6,69.1,64.1,98,87,73,29.95,29.84,9,1,12,0.00
2013-11-19,74.6,68.7,63.1,69.0,63.0,55.2,97,83,63,29.91,29.81,15,2,15,0.00
2013-11-20,79.0,70.4,63.8,71.5,66.5,61.3,95,88,73,30.05,29.90,13,1,15,0.00
2013-11-21,78.4,71.0,67.4,73.0,68.7,65.9,97,93,80,30.13,30.03,13,1,13,0.00
2013-11-22,81.0,72.2,62.6,71.8,67.6,60.5,96,86,67,30.13,30.04,17,2,17,0.00
2013-11-23,84.3,70.3,58.8,69.9,64.0,57.4,98,82,53,30.05,29.92,11,0,11,0.00
2013-11-24,68.7,62.9,58.2,65.6,57.2,50.9,93,82,73,30.17,29.95,25,5,25,0.00
2013-11-25,75.4,66.5,59.3,60.2,56.9,52.6,88,72,54,30.18,30.01,17,4,19,0.00
2013-11-26,82.4,72.7,61.5,74.3,68.9,57.9,100,88,73,30.03,29.66,25,4,25,0.00
2013-11-27,73.7,59.9,39.8,71.6,55.1,35.7,96,84,70,30.12,29.61,18,5,27,0.00
2013-11-28,62.7,44.5,33.4,52.4,39.4,30.1,89,82,67,30.27,30.12,15,2,15,0.00
2013-11-29,69.0,57.2,47.4,60.0,52.3,45.3,96,85,66,30.30,30.21,20,4,20,0.00
2013-11-30,75.6,63.7,55.4,65.8,59.7,51.8,96,88,63,30.26,30.12,13,3,17,0.00
2013-12-1,73.3,63.8,58.3,66.4,61.3,56.6,100,92,75,30.14,29.90,12,2,12,0.00
2013-12-2,73.3,61.2,49.8,63.1,57.2,47.8,98,88,58,29.90,29.73,10,1,14,0.00
2013-12-3,77.4,61.4,46.7,63.2,55.5,45.3,100,83,57,29.91,29.80,13,1,13,0.00
2013-12-4,81.1,65.7,53.6,71.9,61.3,52.2,100,87,62,30.01,29.89,10,0,10,0.00
2013-12-5,83.0,68.4,55.3,70.2,62.7,54.2,99,84,58,30.09,30.00,12,1,14,0.00
2013-12-6,84.5,70.5,58.6,73.7,65.5,57.5,100,86,63,30.10,30.01,18,0,18,0.00
2013-12-7,84.3,70.1,59.4,70.8,64.0,58.1,98,83,52,30.16,30.07,12,1,12,0.00
2013-12-8,83.8,69.1,57.6,73.9,64.1,56.5,100,85,60,30.15,30.03,14,1,14,0.00
2013-12-9,84.1,69.7,57.5,72.9,64.5,56.3,98,85,58,30.11,30.01,20,2,20,0.00
2013-12-10,83.6,71.6,58.1,72.2,65.7,56.1,100,83,61,30.12,29.98,14,1,14,0.00
2013-12-11,80.3,66.0,55.1,69.3,60.7,51.9,92,84,67,30.18,30.08,14,3,14,0.00
2013-12-12,67.3,58.5,44.1,58.4,46.8,28.8,94,69,28,30.25,30.13,18,4,18,0.00
2013-12-13,74.2,58.2,45.5,58.0,51.0,41.7,100,79,51,30.22,30.05,14,0,14,0.00
2013-12-14,82.5,68.3,52.0,71.2,63.2,50.0,98,85,66,30.06,29.84,24,4,24,0.00
2013-12-15,73.5,65.5,57.5,70.6,62.0,54.6,100,89,77,30.05,29.78,24,3,24,0.00
2013-12-16,61.4,50.1,36.9,54.6,43.9,34.5,93,80,45,30.16,30.04,14,2,14,0.00
2013-12-17,69.9,50.6,35.1,54.0,44.3,33.0,100,81,54,30.17,30.07,10,0,10,0.00
2013-12-18,67.0,49.6,36.7,49.3,41.9,34.8,95,77,50,30.20,30.11,16,2,16,0.00
2013-12-19,74.2,54.5,34.4,60.4,48.0,32.6,100,81,56,30.20,30.09,6,0,6,0.00
2013-12-20,82.5,62.5,44.7,64.7,55.2,43.1,95,79,53,30.14,30.02,14,2,14,0.00
2013-12-21,84.0,70.3,55.8,73.1,65.3,53.7,100,85,62,30.07,29.95,20,2,20,0.00
2013-12-22,84.3,72.5,61.8,74.8,67.7,60.4,100,86,64,30.06,29.99,22,0,22,0.00
2013-12-23,86.3,75.2,63.1,73.8,68.8,61.7,98,82,58,30.09,29.98,19,4,19,0.00
2013-12-24,72.4,60.6,47.4,70.6,51.6,32.7,98,75,31,30.19,30.00,14,1,18,0.00
2013-12-25,71.8,58.2,42.5,59.3,50.3,38.6,94,76,63,30.19,30.09,13,3,13,0.00
2013-12-26,74.6,61.0,55.2,65.4,57.8,53.7,100,90,68,30.17,30.03,15,3,15,0.00
2013-12-27,67.2,61.3,55.9,63.9,59.1,53.9,100,93,88,30.18,30.09,17,4,17,0.00
2013-12-28,75.8,70.3,62.5,71.3,68.2,60.5,97,93,84,30.17,29.93,14,4,17,0.00
2013-12-29,76.0,71.2,64.1,73.8,69.3,62.9,96,94,89,29.95,29.80,16,3,16,0.00
2013-12-30,68.6,59.7,52.0,62.9,55.0,48.2,100,86,52,30.12,29.91,11,1,11,0.00
2013-12-31,67.5,58.9,50.8,54.6,51.8,49.2,96,79,56,30.23,30.09,12,2,16,0.00
2014-1-1,63.2,59.3,56.3,61.5,57.5,52.6,100,94,86,30.19,30.00,15,2,15,0.00
2014-1-2,77.1,65.6,56.7,74.1,64.4,53.5,100,96,82,29.98,29.75,26,2,26,0.00